When you browse on this site, cookies collect data to enhance your experience and personalize the content and advertising you see.
Visit our Privacy Policy to learn more. By continuing to use the site, you agree to this use of cookies and data.
  • In Romania
  • List of Countries
  • For 7 days
  • Water Temperature
  • Weather Map
  • Weather Widgets
  • user-avatar
    Login

    Hourly Weather Abancay

    Today, 25 May, Monday

    Time Temperature Precipitation Wind Pressure Humidity
    00:00 +12°C° 0 mm 1 mps 545 mmHg 94%
    01:00 +12°C° 0 mm 1 mps 545 mmHg 93%
    02:00 +11°C° 0 mm 1 mps 545 mmHg 91%
    03:00 +11°C° 0 mm 1 mps 544 mmHg 90%
    04:00 +11°C° 0 mm 1 mps 544 mmHg 89%
    05:00 +11°C° 0 mm 1 mps 544 mmHg 88%
    06:00 +11°C° 0 mm 1 mps 545 mmHg 86%
    07:00 +12°C° 0 mm 1 mps 546 mmHg 81%
    08:00 +14°C° 0 mm 1 mps 547 mmHg 73%
    09:00 +16°C° 0 mm 1 mps 547 mmHg 66%
    10:00 +19°C° 0 mm 1 mps 548 mmHg 58%
    11:00 +20°C° 0 mm 1 mps 548 mmHg 53%
    12:00 +20°C° 0 mm 2 mps 548 mmHg 47%
    13:00 +21°C° 0 mm 2 mps 548 mmHg 41%
    14:00 +21°C° 0.1 mm 2 mps 547 mmHg 44%
    15:00 +20°C° 0.1 mm 2 mps 547 mmHg 47%
    16:00 +20°C° 0.1 mm 3 mps 546 mmHg 50%
    17:00 +17°C° 0.2 mm 2 mps 546 mmHg 61%
    18:00 +15°C° 0.2 mm 2 mps 545 mmHg 72%
    19:00 +12°C° 0.2 mm 1 mps 545 mmHg 83%
    20:00 +12°C° 0 mm 1 mps 545 mmHg 86%
    21:00 +11°C° 0 mm 1 mps 545 mmHg 88%
    22:00 +11°C° 0 mm 1 mps 545 mmHg 90%
    23:00 +10°C° 0 mm 0 mps 545 mmHg 90%

    Tomorrow, 26 May, Tuesday

    Time Temperature Precipitation Wind Pressure Humidity
    00:00 +10°C° 0 mm 0 mps 545 mmHg 90%
    01:00 +10°C° 0 mm 0 mps 545 mmHg 90%
    02:00 +10°C° 0 mm 0 mps 545 mmHg 88%
    03:00 +10°C° 0 mm 0 mps 545 mmHg 87%
    04:00 +9°C° 0 mm 0 mps 545 mmHg 85%
    05:00 +11°C° 0 mm 1 mps 546 mmHg 83%
    06:00 +11°C° 0 mm 1 mps 546 mmHg 80%
    07:00 +11°C° 0 mm 1 mps 546 mmHg 78%
    08:00 +13°C° 0 mm 1 mps 547 mmHg 67%
    09:00 +15°C° 0 mm 1 mps 548 mmHg 57%
    10:00 +18°C° 0 mm 1 mps 549 mmHg 46%
    11:00 +18°C° 0 mm 2 mps 549 mmHg 43%
    12:00 +19°C° 0 mm 2 mps 548 mmHg 39%
    13:00 +20°C° 0 mm 2 mps 548 mmHg 35%
    14:00 +19°C° 0 mm 2 mps 547 mmHg 39%
    15:00 +19°C° 0 mm 3 mps 547 mmHg 43%
    16:00 +18°C° 0 mm 3 mps 546 mmHg 47%
    17:00 +16°C° 0 mm 2 mps 546 mmHg 55%
    18:00 +13°C° 0 mm 1 mps 545 mmHg 63%
    19:00 +11°C° 0 mm 1 mps 544 mmHg 71%
    20:00 +11°C° 0 mm 1 mps 544 mmHg 72%
    21:00 +10°C° 0 mm 1 mps 544 mmHg 73%
    22:00 +9°C° 0 mm 0 mps 544 mmHg 74%
    23:00 +9°C° 0 mm 1 mps 544 mmHg 73%

    Day after tomorrow, 27 May, Wednesday

    Time Temperature Precipitation Wind Pressure Humidity
    00:00 +9°C° 0 mm 1 mps 543 mmHg 73%
    01:00 +9°C° 0 mm 1 mps 543 mmHg 72%
    02:00 +9°C° 0 mm 1 mps 543 mmHg 72%
    03:00 +8°C° 0 mm 1 mps 543 mmHg 72%
    04:00 +8°C° 0 mm 1 mps 543 mmHg 72%
    05:00 +9°C° 0 mm 1 mps 543 mmHg 71%
    06:00 +10°C° 0 mm 1 mps 544 mmHg 70%
    07:00 +10°C° 0 mm 1 mps 545 mmHg 69%
    08:00 +13°C° 0 mm 1 mps 546 mmHg 63%
    09:00 +15°C° 0 mm 1 mps 547 mmHg 56%
    10:00 +18°C° 0 mm 1 mps 548 mmHg 49%
    11:00 +18°C° 0 mm 2 mps 547 mmHg 47%
    12:00 +19°C° 0 mm 2 mps 547 mmHg 44%
    13:00 +20°C° 0 mm 3 mps 547 mmHg 42%
    14:00 +20°C° 0 mm 3 mps 546 mmHg 45%
    15:00 +19°C° 0 mm 3 mps 546 mmHg 49%
    16:00 +18°C° 0 mm 3 mps 545 mmHg 52%
    17:00 +16°C° 0 mm 2 mps 544 mmHg 61%
    18:00 +13°C° 0 mm 1 mps 543 mmHg 70%
    19:00 +11°C° 0 mm 1 mps 543 mmHg 78%
    20:00 +11°C° 0 mm 1 mps 543 mmHg 79%
    21:00 +9°C° 0 mm 0 mps 543 mmHg 80%
    22:00 +9°C° 0 mm 0 mps 543 mmHg 80%
    23:00 +9°C° 0 mm 0 mps 542 mmHg 80%

    28 May, Thursday

    Time Temperature Precipitation Wind Pressure Humidity
    00:00 +8°C° 0 mm 0 mps 542 mmHg 80%
    01:00 +9°C° 0 mm 1 mps 542 mmHg 80%
    02:00 +9°C° 0 mm 1 mps 542 mmHg 80%
    03:00 +9°C° 0 mm 1 mps 541 mmHg 80%
    04:00 +8°C° 0 mm 1 mps 541 mmHg 80%
    05:00 +9°C° 0 mm 1 mps 542 mmHg 78%
    06:00 +10°C° 0 mm 1 mps 543 mmHg 77%
    07:00 +11°C° 0 mm 1 mps 543 mmHg 75%
    08:00 +13°C° 0 mm 1 mps 544 mmHg 68%
    09:00 +15°C° 0 mm 1 mps 545 mmHg 61%
    10:00 +18°C° 0 mm 1 mps 546 mmHg 55%
    11:00 +18°C° 0 mm 2 mps 546 mmHg 52%
    12:00 +19°C° 0 mm 2 mps 546 mmHg 49%
    13:00 +21°C° 0 mm 3 mps 545 mmHg 45%
    14:00 +20°C° 0 mm 3 mps 545 mmHg 47%
    15:00 +19°C° 0 mm 3 mps 544 mmHg 48%
    16:00 +19°C° 0 mm 3 mps 544 mmHg 50%
    17:00 +16°C° 0 mm 2 mps 543 mmHg 59%
    18:00 +14°C° 0 mm 1 mps 542 mmHg 68%
    19:00 +11°C° 0 mm 1 mps 541 mmHg 76%
    20:00 +11°C° 0 mm 1 mps 541 mmHg 77%
    21:00 +10°C° 0 mm 1 mps 541 mmHg 78%
    22:00 +9°C° 0 mm 0 mps 541 mmHg 79%
    23:00 +8°C° 0 mm 0 mps 541 mmHg 79%

    29 May, Friday

    Time Temperature Precipitation Wind Pressure Humidity
    00:00 +8°C° 0 mm 0 mps 541 mmHg 80%
    01:00 +8°C° 0 mm 0 mps 541 mmHg 81%
    02:00 +8°C° 0 mm 0 mps 541 mmHg 81%
    03:00 +7°C° 0 mm 0 mps 540 mmHg 81%
    04:00 +7°C° 0 mm 0 mps 540 mmHg 82%
    05:00 +8°C° 0 mm 0 mps 541 mmHg 80%
    06:00 +10°C° 0 mm 1 mps 542 mmHg 79%
    07:00 +10°C° 0 mm 1 mps 543 mmHg 77%
    08:00 +13°C° 0 mm 1 mps 544 mmHg 69%
    09:00 +15°C° 0 mm 1 mps 545 mmHg 61%
    10:00 +18°C° 0 mm 1 mps 546 mmHg 52%
    11:00 +18°C° 0 mm 2 mps 545 mmHg 48%
    12:00 +19°C° 0 mm 2 mps 545 mmHg 43%
    13:00 +21°C° 0 mm 3 mps 545 mmHg 38%
    14:00 +20°C° 0 mm 3 mps 545 mmHg 40%
    15:00 +20°C° 0 mm 3 mps 544 mmHg 42%
    16:00 +19°C° 0 mm 2 mps 544 mmHg 43%
    17:00 +16°C° 0 mm 2 mps 543 mmHg 54%
    18:00 +14°C° 0 mm 1 mps 542 mmHg 66%
    19:00 +11°C° 0 mm 1 mps 541 mmHg 77%
    20:00 +11°C° 0 mm 1 mps 542 mmHg 77%
    21:00 +10°C° 0 mm 1 mps 542 mmHg 78%
    22:00 +10°C° 0 mm 1 mps 542 mmHg 79%
    23:00 +9°C° 0 mm 1 mps 542 mmHg 80%

    30 May, Saturday

    Time Temperature Precipitation Wind Pressure Humidity
    00:00 +8°C° 0 mm 0 mps 542 mmHg 81%
    01:00 +7°C° 0 mm 0 mps 541 mmHg 82%
    02:00 +7°C° 0 mm 0 mps 541 mmHg 81%
    03:00 +7°C° 0 mm 0 mps 541 mmHg 81%
    04:00 +8°C° 0 mm 1 mps 540 mmHg 80%
    05:00 +8°C° 0 mm 1 mps 541 mmHg 77%
    06:00 +9°C° 0 mm 1 mps 542 mmHg 74%
    07:00 +10°C° 0 mm 1 mps 543 mmHg 72%
    08:00 +12°C° 0 mm 1 mps 544 mmHg 63%
    09:00 +14°C° 0 mm 1 mps 545 mmHg 54%
    10:00 +18°C° 0 mm 1 mps 546 mmHg 45%
    11:00 +18°C° 0 mm 2 mps 546 mmHg 42%
    12:00 +19°C° 0 mm 2 mps 545 mmHg 39%
    13:00 +20°C° 0 mm 3 mps 545 mmHg 37%
    14:00 +19°C° 0 mm 3 mps 545 mmHg 40%
    15:00 +19°C° 0 mm 2 mps 544 mmHg 42%
    16:00 +18°C° 0 mm 2 mps 544 mmHg 45%
    17:00 +16°C° 0 mm 2 mps 543 mmHg 52%
    18:00 +13°C° 0 mm 2 mps 543 mmHg 60%
    19:00 +11°C° 0 mm 1 mps 542 mmHg 67%
    20:00 +10°C° 0 mm 1 mps 542 mmHg 68%
    21:00 +10°C° 0 mm 1 mps 542 mmHg 69%
    22:00 +9°C° 0 mm 1 mps 543 mmHg 70%
    23:00 +9°C° 0 mm 1 mps 542 mmHg 71%
    Show more